Flag for China Weather past 2 weeks in Taiyuan, Shanxi, China

19 °F


Feels Like: 11 °F
Forecast: -1 / 24 °F
Wind: 6 mph from North

Location: Taiyuan Airport

Current Time: Nov 25, 2015 at 9:18:29 PM

Latest Report: Nov 25, 2015 at 9:00 PM

Visibility: 10 mi

Pressure: 30.42 "Hg (27.49 "Hg at 790m altitude)

Humidity: 45%

Dew point: 1 °F

Location of TaiyuanLocation

Historic Weather in Taiyuan — Graph


Taiyuan temperature yesterday

Maximum temperature yesterday: 28 °F (at 12:00 AM)
Minimum temperature yesterday: 16 °F (at 11:30 PM)
Average temperature yesterday: 23 °F

Past Weeks' High & Low Weather Summary

High54 °F (Nov 15, 12:30 PM)93% (Nov 13, 8:30 AM)30.48 "Hg (Nov 13, 8:30 AM)
Low16 °F (Nov 24, 11:30 PM)35% (Nov 12, 4:00 PM)29.92 "Hg (Nov 14, 2:30 PM)
Average40 °F75%30.20 "Hg
* Reported Nov 10 8:00 PM — Nov 25 8:00 PM, Taiyuan, Weather by CustomWeather, © 2015

Note: Actual official high and low records may vary slightly from our data, if they occured in-between our weather recording intervals... More about our weather records


Taiyuan weather history for previous 24 hours

Time TempWeatherWind HumidityBarometerVisibility
8:00 PM
Wed, Nov 25
21 °FClear.17 mph42%30.39 "Hg10 mi
7:30 PM23 °FClear.13 mph36%30.39 "Hg10 mi
7:00 PM23 °FClear.13 mph42%30.36 "Hg10 mi
6:30 PM23 °FClear.13 mph42%30.36 "Hg10 mi
6:00 PM25 °FClear.20 mph36%30.36 "Hg10 mi
5:30 PM27 °FClear.22 mph36%30.36 "Hg10 mi
5:00 PM25 °FSunny.13 mph46%30.33 "Hg10 mi
4:30 PM27 °FSunny.15 mph43%30.33 "Hg10 mi
4:00 PM28 °FPassing clouds.22 mph40%30.30 "HgN/A
3:30 PM28 °FScattered clouds.20 mph40%30.30 "HgN/A
3:00 PM28 °FScattered clouds.22 mph40%30.30 "HgN/A
2:30 PM28 °FScattered clouds.26 mph40%30.30 "HgN/A
2:00 PM28 °FPartly sunny.24 mph43%30.27 "HgN/A
1:30 PM30 °FPartly sunny.22 mph43%30.27 "HgN/A
1:00 PM28 °FPartly sunny.26 mph47%30.30 "HgN/A
12:30 PM28 °FPartly sunny.24 mph51%30.27 "HgN/A
12:00 PM28 °FScattered clouds.22 mph55%30.27 "HgN/A
11:30 AM30 °FScattered clouds.15 mph64%30.27 "HgN/A
11:00 AM27 °FIce fog.10 mph93%30.27 "Hg2 mi
10:30 AM25 °FIce fog.6 mph93%30.27 "Hg1 mi
10:00 AM23 °FSnow flurries. Ice fog.3 mph93%30.24 "Hg1 mi
9:30 AM21 °FLight snow. Ice fog.3 mph93%30.21 "Hg1 mi
9:00 AM21 °FLight snow. Ice fog.1 mph86%30.21 "Hg1 mi
8:30 AM19 °FLight snow. Ice fog.1 mph93%30.21 "Hg1 mi
7:30 AM18 °FLight snow. Ice fog.1 mph93%30.21 "Hg1 mi
7:00 AM18 °FIce fog.1 mph86%30.21 "Hg1 mi
6:30 AM19 °FIce fog.1 mph86%30.18 "Hg1 mi
6:00 AM18 °FIce fog.1 mph93%30.21 "Hg1 mi
5:30 AM19 °FIce fog.1 mph93%30.21 "Hg1 mi
5:00 AM19 °FIce fog.No wind86%30.21 "Hg1 mi
4:30 AM19 °FIce fog.1 mph86%30.24 "Hg1 mi
4:00 AM18 °FIce fog.No wind93%30.24 "Hg1 mi
3:30 AM18 °FIce fog.1 mph93%30.27 "Hg1 mi
3:00 AM18 °FIce fog.1 mph86%30.27 "Hg2 mi
2:30 AM18 °FIce fog.1 mph86%30.30 "Hg2 mi
2:00 AM18 °FIce fog.3 mph93%30.30 "Hg2 mi
1:30 AM16 °FIce fog.1 mph93%30.30 "Hg2 mi
1:00 AM18 °FIce fog.1 mph86%30.33 "Hg2 mi
12:30 AM18 °FIce fog.3 mph93%30.33 "Hg2 mi
12:00 AM16 °FIce fog.1 mph93%30.33 "Hg2 mi
11:30 PM
Tue, Nov 24
16 °FIce fog.1 mph93%30.36 "Hg2 mi
11:00 PM18 °FIce fog.1 mph86%30.36 "Hg2 mi
10:30 PM19 °FIce fog.1 mph86%30.36 "Hg2 mi
10:00 PM19 °FIce fog.3 mph79%30.39 "Hg2 mi
9:30 PM19 °FIce fog.3 mph86%30.39 "Hg2 mi
9:00 PM19 °FIce fog.3 mph86%30.39 "Hg2 mi
Weather by CustomWeather, © 2015

See weather overviewHow to use our weather pages